DW2057 Weather Reports


time (UTC)temp
F
wind
direction
speed
knots
gust
knots
rain 1hr
in
rain 24hr
in
rain mn
in
humidity
%
barometer
mb
20260508210005 46 268 1.7 2.6 0.00 0.00 0.00 45 1019.7
20260508205629 45 264 0.0 0.9 0.00 0.00 0.00 45 1012.3
20260508205504 45 280 0.9 1.7 0.00 0.00 0.00 44 1019.8
20260508205125 45 279 0.9 1.7 0.00 0.00 0.00 44 1012.3
20260508205005 46 270 0.9 1.7 0.00 0.00 0.00 45 1019.7
20260508204621 46 279 0.0 0.9 0.00 0.00 0.00 43 1012.0
20260508204505 46 280 0.9 1.7 0.00 0.00 0.00 43 1019.5
20260508204118 46 269 0.9 1.7 0.00 0.00 0.00 44 1011.9
20260508203614 46 269 0.9 2.6 0.00 0.00 0.00 43 1012.0
20260508203110 45 260 2.6 2.6 0.00 0.00 0.00 43 1011.6
20260508203005 45 283 1.7 2.6 0.00 0.00 0.00 44 1019.1
20260508202606 45 281 0.0 0.9 0.00 0.00 0.00 44 1011.8
20260508202504 45 281 0.9 1.7 0.00 0.00 0.00 45 1018.9
20260508202104 45 274 0.9 0.9 0.00 0.00 0.00 45 1011.6
20260508201600 45 239 0.0 1.7 0.00 0.00 0.00 43 1011.5
20260508201505 45 271 1.7 3.5 0.00 0.00 0.00 43 1019.0
20260508201057 46 260 0.9 1.7 0.00 0.00 0.00 44 1011.5
20260508200554 45 216 0.9 2.6 0.00 0.00 0.00 42 1011.5
20260508200049 45 245 0.9 1.7 0.00 0.00 0.00 44 1011.3
20260508200005 45 270 1.7 2.6 0.00 0.00 0.00 44 1019.0
20260508195547 45 271 0.9 1.7 0.00 0.00 0.00 44 1011.3
20260508195504 45 271 1.7 2.6 0.00 0.00 0.00 43 1018.9
20260508195043 44 273 0.9 1.7 0.00 0.00 0.00 45 1011.3
20260508195005 44 273 1.7 2.6 0.00 0.00 0.00 45 1018.8
20260508194540 44 299 0.0 1.7 0.00 0.00 0.00 46 1011.0
20260508194507 44 299 0.9 2.6 0.00 0.00 0.00 46 1018.5
20260508194037 43 271 1.7 1.7 0.00 0.00 0.00 45 1011.1
20260508193533 44 265 0.0 1.7 0.00 0.00 0.00 44 1011.2
20260508193505 44 265 0.0 2.6 0.00 0.00 0.00 44 1018.7
20260508193030 44 276 0.9 1.7 0.00 0.00 0.00 44 1011.3
20260508192527 44 287 1.7 1.7 0.00 0.00 0.00 42 1011.3
20260508192504 44 287 1.7 2.6 0.00 0.00 0.00 42 1018.8
20260508192024 44 296 0.9 0.9 0.00 0.00 0.00 41 1011.3
20260508191521 45 296 0.9 1.7 0.00 0.00 0.00 40 1011.3
20260508191505 45 296 0.9 2.6 0.00 0.00 0.00 40 1018.8
20260508191017 45 281 0.0 0.9 0.00 0.00 0.00 39 1011.3
20260508190515 45 277 0.0 1.7 0.00 0.00 0.00 39 1011.3
20260508190505 45 277 0.9 2.6 0.00 0.00 0.00 39 1018.8
20260508190011 45 282 0.9 1.7 0.00 0.00 0.00 40 1011.1
20260508190006 45 282 1.7 2.6 0.00 0.00 0.00 40 1018.6
20260508185509 45 288 1.7 2.6 0.00 0.00 0.00 39 1011.0
20260508185006 45 297 0.9 0.9 0.00 0.00 0.00 38 1011.2
20260508184505 45 295 1.7 3.5 0.00 0.00 0.00 36 1018.7
20260508184000 46 280 1.7 1.7 0.00 0.00 0.00 37 1011.1
20260508183456 46 323 0.0 1.7 0.00 0.00 0.00 36 1010.8
20260508183004 46 287 0.9 2.6 0.00 0.00 0.00 35 1018.5
20260508182951 46 287 0.9 1.7 0.00 0.00 0.00 35 1011.0
20260508182505 46 281 2.6 3.5 0.00 0.00 0.00 35 1018.4
20260508182449 46 283 0.9 2.6 0.00 0.00 0.00 35 1011.1
20260508181944 45 286 1.7 4.3 0.00 0.00 0.00 34 1010.9
20260508181505 45 281 2.6 3.5 0.00 0.00 0.00 36 1018.4
20260508181441 45 295 1.7 1.7 0.00 0.00 0.00 35 1010.7
20260508180938 45 277 0.9 1.7 0.00 0.00 0.00 37 1011.0
20260508180435 45 281 0.9 1.7 0.00 0.00 0.00 36 1010.8
20260508180005 45 281 0.0 3.5 0.00 0.00 0.00 34 1018.4
20260508175931 45 281 0.9 2.6 0.00 0.00 0.00 34 1010.9
20260508175427 45 296 0.9 2.6 0.00 0.00 0.00 34 1010.9
20260508174926 45 277 1.7 1.7 0.00 0.00 0.00 34 1010.9
20260508174423 45 282 0.9 1.7 0.00 0.00 0.00 34 1010.9
20260508174005 45 267 0.0 1.7 0.00 0.00 0.00 38 1018.3
20260508173919 45 267 0.0 1.7 0.00 0.00 0.00 36 1010.5
20260508173505 45 302 0.0 2.6 0.00 0.00 0.00 33 1018.4
20260508173417 45 305 1.7 1.7 0.00 0.00 0.00 32 1011.0
20260508172912 45 296 0.9 1.7 0.00 0.00 0.00 33 1010.9
20260508172504 45 292 0.9 2.6 0.00 0.00 0.00 34 1018.5
20260508172410 45 283 0.9 1.7 0.00 0.00 0.00 34 1011.0
20260508172005 45 237 0.0 1.7 0.00 0.00 0.00 36 1018.4
20260508171906 45 236 0.0 0.9 0.00 0.00 0.00 35 1011.0
20260508171505 45 294 0.9 2.6 0.00 0.00 0.00 37 1018.2
20260508171402 45 288 0.0 0.9 0.00 0.00 0.00 36 1011.0
20260508170859 45 279 0.0 1.7 0.00 0.00 0.00 34 1011.0
20260508170505 46 295 0.0 1.7 0.00 0.00 0.00 36 1018.1
20260508170357 46 296 0.0 0.9 0.00 0.00 0.00 36 1010.9
20260508170004 46 298 0.9 1.7 0.00 0.00 0.00 34 1018.5
20260508165853 46 302 0.9 0.9 0.00 0.00 0.00 35 1010.9
20260508165351 46 299 0.0 0.9 0.00 0.00 0.00 33 1011.4
20260508165004 47 277 1.7 2.6 0.00 0.00 0.00 32 1018.5
20260508164847 47 298 2.6 2.6 0.00 0.00 0.00 32 1011.1
20260508164505 47 275 1.7 2.6 0.00 0.00 0.00 32 1018.6
20260508164344 47 286 0.9 2.6 0.00 0.00 0.00 32 1010.9
20260508164005 47 277 0.0 3.5 0.00 0.00 0.00 32 1018.4
20260508163841 47 286 0.9 1.7 0.00 0.00 0.00 32 1011.1
20260508163339 47 305 0.9 1.7 0.00 0.00 0.00 34 1011.3
20260508163004 47 288 0.9 1.7 0.00 0.00 0.00 34 1018.8
20260508162835 47 279 0.9 2.6 0.00 0.00 0.00 35 1011.3
20260508162505 47 288 0.9 2.6 0.00 0.00 0.00 36 1018.8
20260508162332 47 251 1.7 1.7 0.00 0.00 0.00 39 1011.0
20260508162004 47 276 1.7 2.6 0.00 0.00 0.00 40 1018.6
20260508161829 47 273 0.9 1.7 0.00 0.00 0.00 41 1011.3
20260508161326 48 277 0.9 1.7 0.00 0.00 0.00 42 1011.0
20260508161005 48 282 1.7 2.6 0.00 0.00 0.00 42 1018.5
20260508160823 48 280 0.0 0.9 0.00 0.00 0.00 43 1011.1
20260508160322 48 284 0.0 1.7 0.00 0.00 0.00 42 1011.2
20260508160006 49 288 0.0 1.7 0.00 0.00 0.00 42 1018.7
20260508155818 49 302 0.9 1.7 0.00 0.00 0.00 41 1011.0
20260508155504 49 335 0.9 2.6 0.00 0.00 0.00 41 1018.6
20260508155315 49 311 1.7 2.6 0.00 0.00 0.00 41 1010.9
20260508155005 49 320 0.9 2.6 0.00 0.00 0.00 41 1018.6
20260508154812 49 287 0.9 2.6 0.00 0.00 0.00 41 1011.0
20260508154505 49 289 1.7 3.5 0.00 0.00 0.00 42 1018.5
20260508154310 49 301 1.7 4.3 0.00 0.00 0.00 42 1011.1
20260508153806 49 274 0.9 2.6 0.00 0.00 0.00 43 1011.0
20260508153303 50 296 0.0 2.6 0.00 0.00 0.00 43 1011.1
20260508153005 50 247 0.9 3.5 0.00 0.00 0.00 43 1018.5
20260508152759 50 336 0.9 2.6 0.00 0.00 0.00 44 1010.9
20260508152505 50 249 0.9 3.5 0.00 0.00 0.00 44 1018.6
20260508152256 51 39 0.0 1.7 0.00 0.00 0.00 45 1010.9
20260508152004 51 280 2.6 5.2 0.00 0.00 0.00 44 1018.3
20260508151752 51 292 1.7 7.0 0.00 0.00 0.00 45 1010.5
20260508151504 51 282 3.5 4.3 0.00 0.00 0.00 47 1018.2
20260508151249 51 203 1.7 2.6 0.00 0.00 0.00 47 1010.7
20260508150745 50 286 4.3 6.1 0.00 0.00 0.00 53 1010.7
20260508150505 51 316 3.5 4.3 0.00 0.00 0.00 58 1018.4
20260508150242 51 176 1.7 4.3 0.00 0.00 0.00 60 1010.7
20260508150007 51 277 2.6 4.3 0.00 0.00 0.00 56 1018.3
20260508145738 51 211 0.9 4.3 0.00 0.00 0.00 54 1010.9
20260508145235 51 348 1.7 2.6 0.00 0.00 0.00 60 1011.1
20260508144731 52 292 2.6 2.6 0.00 0.00 0.00 61 1011.1
20260508144230 52 283 0.9 2.6 0.00 0.00 0.00 57 1010.9
20260508144005 52 267 1.7 3.5 0.00 0.00 0.00 56 1018.4
20260508143727 53 259 1.7 4.3 0.00 0.00 0.00 55 1010.8
20260508143504 53 307 1.7 3.5 0.00 0.00 0.00 55 1018.3
20260508143224 53 287 1.7 12.2 0.00 0.00 0.00 54 1010.4
20260508143005 53 249 2.6 4.3 0.00 0.00 0.00 54 1018.0
20260508142720 53 272 3.5 5.2 0.00 0.00 0.00 54 1010.4
20260508142504 53 291 1.7 10.4 0.00 0.00 0.00 54 1018.1
20260508142217 53 225 0.9 2.6 0.00 0.00 0.00 55 1010.3
20260508141713 53 297 1.7 2.6 0.00 0.00 0.00 54 1010.4
20260508141504 53 273 2.6 4.3 0.00 0.00 0.00 54 1017.9
20260508141211 53 288 1.7 1.7 0.00 0.00 0.00 54 1010.7
20260508141005 53 280 0.9 6.1 0.00 0.00 0.00 53 1017.9
20260508140708 53 307 2.6 2.6 0.00 0.00 0.00 55 1010.2
20260508140504 53 258 1.7 2.6 0.00 0.00 0.00 55 1018.1
20260508140205 53 225 1.7 4.3 0.00 0.00 0.00 55 1010.2
20260508140004 54 271 0.9 1.7 0.00 0.00 0.00 55 1017.9
20260508135701 54 280 0.0 2.6 0.00 0.00 0.00 54 1010.1
20260508135202 54 274 1.7 5.2 0.00 0.00 0.00 54 1010.3
20260508135005 54 276 1.7 4.3 0.00 0.00 0.00 54 1017.7
20260508134658 54 279 2.6 4.3 0.00 0.00 0.00 55 1010.2
20260508134505 54 280 1.7 5.2 0.00 0.00 0.00 57 1017.8
20260508134155 54 272 0.9 2.6 0.00 0.00 0.00 57 1009.9
20260508134004 54 274 2.6 4.3 0.00 0.00 0.00 58 1017.8
20260508133652 54 294 1.7 1.7 0.00 0.00 0.00 58 1009.9
20260508133505 54 309 0.9 2.6 0.00 0.00 0.00 58 1017.7
20260508133150 54 259 0.9 7.0 0.00 0.00 0.00 56 1010.3
20260508132647 54 315 0.0 2.6 0.00 0.00 0.00 57 1010.1
20260508132505 54 290 1.7 3.5 0.00 0.00 0.00 57 1017.7
20260508132144 53 268 1.7 5.2 0.00 0.00 0.00 59 1010.1
20260508132004 53 276 3.5 5.2 0.00 0.00 0.00 60 1017.7
20260508131640 54 286 1.7 4.3 0.00 0.00 0.00 65 1010.2
20260508131136 55 265 0.9 1.7 0.00 0.00 0.00 63 1010.2
20260508131005 54 219 1.7 3.5 0.00 0.00 0.00 61 1017.6
20260508130633 54 207 1.7 2.6 0.00 0.00 0.00 62 1010.1
20260508130504 54 298 1.7 3.5 0.00 0.00 0.00 63 1017.7
20260508130130 54 249 1.7 2.6 0.00 0.00 0.00 66 1010.2
20260508130010 55 286 1.7 2.6 0.00 0.00 0.00 65 1017.8
20260508125625 56 303 2.6 2.6 0.00 0.00 0.00 61 1010.2
20260508125504 56 266 2.6 4.3 0.00 0.00 0.00 58 1017.5
20260508125123 56 239 2.6 5.2 0.00 0.00 0.00 57 1009.8
20260508125005 56 228 2.6 6.1 0.00 0.00 0.00 57 1017.4
20260508124621 57 283 2.6 2.6 0.00 0.00 0.00 54 1009.7
20260508124118 57 279 4.3 6.1 0.00 0.00 0.00 51 1009.5
20260508123616 57 266 1.7 2.6 0.00 0.00 0.00 50 1009.7
20260508123505 57 283 2.6 5.2 0.00 0.00 0.00 50 1016.9
20260508123113 57 291 0.9 6.1 0.00 0.00 0.00 49 1009.4
20260508123004 57 245 3.5 10.4 0.00 0.00 0.00 49 1017.3
20260508122609 57 289 1.7 4.3 0.00 0.00 0.00 54 1009.5
20260508122505 57 287 2.6 4.3 0.00 0.00 0.00 55 1017.2
20260508122106 57 307 0.9 4.3 0.00 0.00 0.00 57 1009.3
20260508121605 57 299 1.7 2.6 0.00 0.00 0.00 57 1009.4
20260508121504 57 287 2.6 3.5 0.00 0.00 0.00 57 1017.2
20260508121103 57 280 1.7 4.3 0.00 0.00 0.00 57 1009.7
20260508120600 57 284 0.9 1.7 0.00 0.00 0.00 57 1009.8
20260508120058 57 301 1.7 2.6 0.00 0.00 0.00 58 1009.8
20260508120005 57 301 1.7 3.5 0.00 0.00 0.00 58 1017.4
20260508115555 57 278 2.6 2.6 0.00 0.00 0.00 62 1009.5
20260508115505 57 278 3.5 3.5 0.00 0.00 0.00 62 1017.2
20260508115051 57 274 0.0 1.7 0.00 0.00 0.00 63 1009.5
20260508115004 57 274 0.9 2.6 0.00 0.00 0.00 63 1017.2
20260508114549 58 295 1.7 2.6 0.00 0.00 0.00 65 1009.8
20260508114505 58 295 1.7 3.5 0.00 0.00 0.00 65 1017.4
20260508114045 59 263 0.9 1.7 0.00 0.00 0.00 61 1009.7
20260508114007 59 263 1.7 2.6 0.00 0.00 0.00 61 1017.3
20260508113542 59 204 0.9 1.7 0.00 0.00 0.00 58 1009.4
20260508113040 59 283 0.9 1.7 0.00 0.00 0.00 56 1009.3
20260508113006 59 283 1.7 2.6 0.00 0.00 0.00 56 1017.0
20260508112536 59 307 0.9 2.6 0.00 0.00 0.00 56 1009.3
20260508112505 59 307 1.7 3.5 0.00 0.00 0.00 56 1017.0
20260508112033 59 305 0.0 0.0 0.00 0.00 0.00 55 1009.3
20260508112005 59 305 0.0 0.0 0.00 0.00 0.00 55 1017.0
20260508111530 59 291 0.0 0.9 0.00 0.00 0.00 55 1009.4
20260508111027 59 280 0.0 1.7 0.00 0.00 0.00 55 1009.3
20260508110525 60 294 0.9 1.7 0.00 0.00 0.00 54 1009.2
20260508110021 60 275 1.7 1.7 0.00 0.00 0.00 54 1009.3
20260508110005 60 275 1.7 2.6 0.00 0.00 0.00 54 1017.0
20260508105516 60 261 0.0 1.7 0.00 0.00 0.00 53 1009.0
20260508105504 60 289 1.7 2.6 0.00 0.00 0.00 53 1016.9
20260508105014 60 305 0.0 0.9 0.00 0.00 0.00 54 1009.1
20260508105005 60 305 0.0 1.7 0.00 0.00 0.00 54 1016.8
20260508104511 60 303 0.0 1.7 0.00 0.00 0.00 53 1009.1
20260508104505 60 303 0.0 2.6 0.00 0.00 0.00 53 1016.8
20260508104007 60 10 0.0 0.9 0.00 0.00 0.00 52 1009.1
20260508104004 60 10 0.9 1.7 0.00 0.00 0.00 52 1016.8
20260508103505 61 284 1.7 3.5 0.00 0.00 0.00 51 1016.9
20260508103010 61 318 1.7 2.6 0.00 0.00 0.00 50 1016.8
20260508103002 60 307 0.9 4.3 0.00 0.00 0.00 51 1009.0
20260508102504 60 309 0.9 1.7 0.00 0.00 0.00 53 1016.8
20260508102500 60 309 0.9 0.9 0.00 0.00 0.00 53 1009.1
20260508102005 60 291 0.0 2.6 0.00 0.00 0.00 54 1016.5
20260508101956 60 291 0.0 1.7 0.00 0.00 0.00 54 1008.8
20260508101505 61 184 1.7 2.6 0.00 0.00 0.00 53 1016.6
20260508101454 61 184 0.9 1.7 0.00 0.00 0.00 53 1008.9
20260508101004 61 282 0.0 2.6 0.00 0.00 0.00 52 1016.8
20260508100951 61 282 0.0 1.7 0.00 0.00 0.00 52 1009.1
20260508100505 61 279 2.6 4.3 0.00 0.00 0.00 52 1016.6
20260508100450 61 279 2.6 4.3 0.00 0.00 0.00 52 1008.9
20260508095945 61 282 1.7 4.3 0.00 0.00 0.00 52 1008.7
20260508095443 62 283 0.9 2.6 0.00 0.00 0.00 51 1008.6
20260508095004 62 289 2.6 3.5 0.00 0.00 0.00 50 1016.4
20260508094940 62 289 1.7 2.6 0.00 0.00 0.00 50 1008.7
20260508094505 62 299 0.9 2.6 0.00 0.00 0.00 48 1016.4
20260508094437 62 299 0.9 1.7 0.00 0.00 0.00 48 1008.7
20260508094005 63 307 0.9 5.2 0.00 0.00 0.00 49 1016.2
20260508093933 63 307 0.9 5.2 0.00 0.00 0.00 49 1008.4
20260508093505 63 236 0.9 3.5 0.00 0.00 0.00 50 1016.0
20260508093431 63 236 0.0 2.6 0.00 0.00 0.00 50 1008.2
20260508092928 63 250 0.0 1.7 0.00 0.00 0.00 50 1008.3
20260508092504 63 287 0.9 4.3 0.00 0.00 0.00 49 1015.9
20260508092426 63 287 0.9 4.3 0.00 0.00 0.00 49 1008.1
20260508091924 63 289 0.0 1.7 0.00 0.00 0.00 49 1008.0
20260508091504 63 321 2.6 2.6 0.00 0.00 0.00 48 1016.2
20260508091421 63 321 1.7 1.7 0.00 0.00 0.00 48 1008.4
20260508090918 63 283 2.6 2.6 0.00 0.00 0.00 48 1008.0
20260508090417 64 278 0.0 1.7 0.00 0.00 0.00 47 1008.2
20260508090005 64 357 1.7 3.5 0.00 0.00 0.00 47 1015.7
20260508085912 64 357 1.7 2.6 0.00 0.00 0.00 47 1007.9
20260508085505 64 295 0.9 2.6 0.00 0.00 0.00 46 1015.8
20260508085409 64 295 0.0 1.7 0.00 0.00 0.00 46 1008.0
20260508085004 64 285 0.9 2.6 0.00 0.00 0.00 46 1016.1
20260508084905 64 286 0.9 1.7 0.00 0.00 0.00 45 1007.8
20260508084402 64 284 0.9 2.6 0.00 0.00 0.00 45 1008.1
20260508084005 64 285 0.9 2.6 0.00 0.00 0.00 44 1015.9
20260508083900 64 282 1.7 1.7 0.00 0.00 0.00 44 1008.2
20260508083358 64 297 2.6 4.3 0.00 0.00 0.00 44 1008.1
20260508083004 64 317 1.7 3.5 0.00 0.00 0.00 44 1015.8
20260508082856 64 317 0.9 2.6 0.00 0.00 0.00 44 1007.9
20260508082505 64 310 0.9 2.6 0.00 0.00 0.00 44 1016.1
20260508082355 64 307 1.7 1.7 0.00 0.00 0.00 44 1008.3
20260508082004 64 287 0.9 2.6 0.00 0.00 0.00 44 1015.9
20260508081852 64 289 0.9 1.7 0.00 0.00 0.00 45 1008.2
20260508081348 64 296 0.0 1.7 0.00 0.00 0.00 43 1008.2
20260508081005 64 301 0.0 2.6 0.00 0.00 0.00 43 1016.4
20260508080846 64 301 0.9 4.3 0.00 0.00 0.00 42 1008.4
20260508080504 64 284 1.7 4.3 0.00 0.00 0.00 42 1016.1
20260508080343 65 308 0.9 1.7 0.00 0.00 0.00 42 1008.7
20260508080004 65 298 1.7 2.6 0.00 0.00 0.00 41 1016.4
20260508075840 65 305 0.0 1.7 0.00 0.00 0.00 42 1008.6
20260508075505 65 288 1.7 5.2 0.00 0.00 0.00 41 1016.4
20260508075337 65 295 1.7 5.2 0.00 0.00 0.00 41 1008.7
20260508075004 65 281 3.5 5.2 0.00 0.00 0.00 41 1016.2
20260508074835 65 321 2.6 4.3 0.00 0.00 0.00 40 1008.4
20260508074332 65 277 0.9 2.6 0.00 0.00 0.00 43 1008.3
20260508073828 65 277 1.7 2.6 0.00 0.00 0.00 43 1008.4
20260508073505 65 312 0.9 1.7 0.00 0.00 0.00 45 1016.3
20260508073327 65 312 0.9 0.9 0.00 0.00 0.00 43 1008.7
20260508073004 67 329 0.9 3.5 0.00 0.00 0.00 40 1016.2
20260508072822 67 278 1.7 2.6 0.00 0.00 0.00 39 1008.3
20260508072504 67 288 1.7 3.5 0.00 0.00 0.00 35 1016.3
20260508072319 67 301 1.7 2.6 0.00 0.00 0.00 35 1008.4
20260508072004 67 317 1.7 4.3 0.00 0.00 0.00 34 1015.8
20260508071817 67 264 3.5 5.2 0.00 0.00 0.00 34 1008.3
20260508071315 68 357 0.9 1.7 0.00 0.00 0.00 34 1008.6
20260508071005 68 298 4.3 5.2 0.00 0.00 0.00 32 1016.0
20260508070812 68 237 1.7 4.3 0.00 0.00 0.00 34 1008.4
20260508070504 68 260 0.9 2.6 0.00 0.00 0.00 33 1016.2
20260508070311 69 264 2.6 2.6 0.00 0.00 0.00 33 1008.4
20260508070006 69 125 1.7 3.5 0.00 0.00 0.00 34 1016.2
20260508065807 69 208 0.9 1.7 0.00 0.00 0.00 35 1008.4
20260508065505 69 276 1.7 3.5 0.00 0.00 0.00 37 1016.0
20260508065307 69 247 0.9 1.7 0.00 0.00 0.00 38 1008.3
20260508065005 69 298 1.7 3.5 0.00 0.00 0.00 37 1016.1
20260508064803 69 272 0.9 1.7 0.00 0.00 0.00 37 1008.4
20260508064505 69 303 0.0 1.7 0.00 0.00 0.00 37 1016.2
20260508064301 69 314 0.9 5.2 0.00 0.00 0.00 37 1008.3
20260508064004 69 253 0.9 2.6 0.00 0.00 0.00 38 1016.2
20260508063758 69 267 0.9 1.7 0.00 0.00 0.00 37 1008.6
20260508063256 69 286 1.7 2.6 0.00 0.00 0.00 36 1008.6
20260508063004 68 310 0.9 1.7 0.00 0.00 0.00 37 1016.0
20260508062753 68 294 0.9 1.7 0.00 0.00 0.00 37 1008.4
20260508062506 68 274 1.7 2.6 0.00 0.00 0.00 38 1016.2
20260508062250 67 317 1.7 2.6 0.00 0.00 0.00 38 1008.6
20260508062005 67 323 1.7 2.6 0.00 0.00 0.00 39 1016.3
20260508061747 67 202 0.9 1.7 0.00 0.00 0.00 40 1008.4
20260508061244 67 269 0.0 1.7 0.00 0.00 0.00 42 1008.8
20260508060741 67 241 0.9 0.9 0.00 0.00 0.00 41 1008.7
20260508060239 67 157 2.6 2.6 0.00 0.00 0.00 42 1008.8
20260508060005 67 105 0.0 1.7 0.00 0.00 0.00 44 1016.7
20260508055734 67 98 0.9 1.7 0.00 0.00 0.00 43 1009.3
20260508055505 67 275 0.9 2.6 0.00 0.00 0.00 42 1016.8
20260508055231 67 255 1.7 1.7 0.00 0.00 0.00 43 1009.2
20260508054727 67 257 1.7 2.6 0.00 0.00 0.00 43 1008.9
20260508054505 67 247 0.9 2.6 0.00 0.00 0.00 43 1016.9
20260508054226 67 239 0.9 1.7 0.00 0.00 0.00 43 1009.4
20260508054006 68 269 1.7 2.6 0.00 0.00 0.00 42 1017.0
20260508053722 68 278 0.9 1.7 0.00 0.00 0.00 40 1009.3
20260508053219 68 271 0.9 2.6 0.00 0.00 0.00 41 1009.7
20260508052716 68 322 0.0 1.7 0.00 0.00 0.00 42 1009.3
20260508052505 68 230 1.7 2.6 0.00 0.00 0.00 42 1017.1
20260508052213 68 285 0.9 0.9 0.00 0.00 0.00 41 1009.5
20260508052004 68 328 0.9 2.6 0.00 0.00 0.00 41 1017.1
20260508051709 68 319 0.9 1.7 0.00 0.00 0.00 42 1009.4
20260508051505 68 255 1.7 3.5 0.00 0.00 0.00 41 1017.1
20260508051205 68 229 0.9 1.7 0.00 0.00 0.00 41 1009.5
20260508050702 68 254 1.7 1.7 0.00 0.00 0.00 41 1009.5
20260508050504 68 282 1.7 3.5 0.00 0.00 0.00 42 1017.3
20260508050200 68 328 1.7 2.6 0.00 0.00 0.00 42 1009.9
20260508045654 69 178 0.9 1.7 0.00 0.00 0.00 42 1009.7
20260508045504 68 253 0.9 3.5 0.00 0.00 0.00 43 1017.2
20260508045153 68 313 1.7 2.6 0.00 0.00 0.00 41 1009.5
20260508045005 68 251 1.7 2.6 0.00 0.00 0.00 41 1017.4
20260508044650 68 164 0.0 0.9 0.00 0.00 0.00 42 1010.0
20260508044146 68 201 0.9 2.6 0.00 0.00 0.00 41 1010.2
20260508044005 68 240 1.7 4.3 0.00 0.00 0.00 41 1017.7
20260508043642 67 224 0.9 0.9 0.00 0.00 0.00 42 1010.5
20260508043140 67 267 1.7 2.6 0.00 0.00 0.00 46 1010.1
20260508043004 67 44 0.9 1.7 0.00 0.00 0.00 46 1017.9
20260508042637 67 284 0.0 1.7 0.00 0.00 0.00 45 1010.3
20260508042134 69 187 0.9 2.6 0.00 0.00 0.00 45 1010.2
20260508042006 69 215 1.7 3.5 0.00 0.00 0.00 41 1017.9
20260508041630 70 237 0.9 0.9 0.00 0.00 0.00 38 1010.2
20260508041505 70 237 0.9 1.7 0.00 0.00 0.00 38 1017.8
20260508041127 70 246 0.9 1.7 0.00 0.00 0.00 37 1010.2
20260508041005 70 205 1.7 1.7 0.00 0.00 0.00 37 1017.7
20260508040624 71 276 0.0 0.9 0.00 0.00 0.00 36 1010.1
20260508040121 71 269 0.9 1.7 0.00 0.00 0.00 35 1010.4
20260508040005 71 251 1.7 2.6 0.00 0.00 0.00 35 1017.9
20260508035618 72 197 0.0 2.6 0.00 0.00 0.00 34 1010.5
20260508035116 73 270 1.7 2.6 0.00 0.00 0.00 32 1010.5
20260508034612 73 260 0.9 4.3 0.00 0.00 0.00 32 1010.8
20260508034505 73 199 3.5 4.3 0.00 0.00 0.00 31 1018.1
20260508034109 73 181 0.0 2.6 0.00 0.00 0.00 32 1010.7
20260508033607 73 263 1.7 2.6 0.00 0.00 0.00 32 1010.9
20260508033105 73 156 3.5 6.1 0.00 0.00 0.00 31 1010.9
20260508033004 73 280 3.5 4.3 0.00 0.00 0.00 32 1018.1
20260508032601 73 280 0.9 2.6 0.00 0.00 0.00 32 1010.9
20260508032059 73 208 2.6 2.6 0.00 0.00 0.00 34 1011.0
20260508032004 73 254 1.7 4.3 0.00 0.00 0.00 33 1018.6
20260508031556 73 282 2.6 4.3 0.00 0.00 0.00 32 1010.9
20260508031052 73 241 0.9 1.7 0.00 0.00 0.00 33 1011.1
20260508030548 74 102 2.6 7.0 0.00 0.00 0.00 33 1010.9
20260508030047 73 202 1.7 4.3 0.00 0.00 0.00 34 1011.3
20260508030005 74 309 1.7 4.3 0.00 0.00 0.00 33 1018.9
20260508025542 75 339 1.7 4.3 0.00 0.00 0.00 30 1011.4
20260508025505 74 224 2.6 3.5 0.00 0.00 0.00 33 1019.1
20260508025039 73 327 1.7 4.3 0.00 0.00 0.00 35 1011.4
20260508024535 71 303 0.9 1.7 0.00 0.00 0.00 37 1011.6
20260508024506 71 297 1.7 2.6 0.00 0.00 0.00 37 1019.1
20260508024033 70 314 1.7 6.1 0.00 0.00 0.00 38 1011.6
20260508024004 70 298 2.6 5.2 0.00 0.00 0.00 41 1019.1
20260508023529 70 335 0.0 1.7 0.00 0.00 0.00 42 1012.0
20260508023026 71 80 0.9 2.6 0.00 0.00 0.00 41 1012.2
20260508023005 71 250 2.6 3.5 0.00 0.00 0.00 41 1019.5
20260508022522 72 236 0.0 1.7 0.00 0.00 0.00 42 1012.2
20260508022504 72 236 0.9 2.6 0.00 0.00 0.00 42 1019.6
20260508022019 73 274 2.6 2.6 0.00 0.00 0.00 39 1012.2
20260508022005 73 274 2.6 3.5 0.00 0.00 0.00 39 1019.6
20260508021515 72 256 2.6 4.3 0.00 0.00 0.00 43 1012.2
20260508021504 72 256 2.6 4.3 0.00 0.00 0.00 43 1019.6
20260508021011 71 337 1.7 5.2 0.00 0.00 0.00 44 1012.4
20260508021005 71 337 2.6 5.2 0.00 0.00 0.00 44 1019.8
20260508020509 71 46 2.6 4.3 0.00 0.00 0.00 46 1012.1
20260508020504 71 46 2.6 4.3 0.00 0.00 0.00 46 1019.5
20260508020007 69 210 1.7 1.7 0.00 0.00 0.00 49 1012.4
20260508020004 69 210 1.7 2.6 0.00 0.00 0.00 49 1019.8
20260508015504 67 292 0.0 1.7 0.00 0.00 0.00 52 1012.6
20260508015005 67 184 1.7 2.6 0.00 0.00 0.00 51 1019.9
20260508015001 67 184 0.9 1.7 0.00 0.00 0.00 51 1012.5
20260508014457 67 252 0.9 2.6 0.00 0.00 0.00 53 1012.4
20260508013953 66 314 0.9 1.7 0.00 0.00 0.00 53 1012.5
20260508013505 66 180 1.7 1.7 0.00 0.00 0.00 54 1020.0
20260508013449 66 180 0.9 0.9 0.00 0.00 0.00 54 1012.6
20260508013005 66 203 1.7 3.5 0.00 0.00 0.00 55 1020.0
20260508012947 66 203 0.9 2.6 0.00 0.00 0.00 55 1012.6
20260508012505 66 279 0.9 2.6 0.00 0.00 0.00 55 1020.2
20260508012443 66 279 0.0 1.7 0.00 0.00 0.00 55 1012.9
20260508012005 65 236 0.9 1.7 0.00 0.00 0.00 58 1020.2
20260508011941 65 236 0.0 0.9 0.00 0.00 0.00 58 1012.9
20260508011439 64 281 0.9 0.9 0.00 0.00 0.00 58 1012.9
20260508010936 64 167 0.0 0.0 0.00 0.00 0.00 60 1013.2
20260508010433 63 249 0.9 0.9 0.00 0.00 0.00 60 1013.3
20260508010004 62 325 0.0 1.7 0.00 0.00 0.00 63 1020.7
20260508005930 62 325 0.0 0.9 0.00 0.00 0.00 63 1013.4
20260508005505 61 326 0.0 1.7 0.00 0.00 0.00 64 1020.7
20260508005427 61 326 0.0 0.9 0.00 0.00 0.00 64 1013.4
20260508005004 61 326 0.9 1.7 0.00 0.00 0.00 64 1020.8
20260508004923 61 326 0.9 0.9 0.00 0.00 0.00 64 1013.5
20260508004419 61 109 0.0 0.0 0.00 0.00 0.00 66 1013.6
20260508003916 60 109 0.0 0.0 0.00 0.00 0.00 67 1013.5
20260508003413 60 109 0.0 0.0 0.00 0.00 0.00 67 1013.4
20260508003007 60 109 0.0 0.0 0.00 0.00 0.00 67 1020.6
20260508002910 61 109 0.0 0.0 0.00 0.00 0.00 67 1013.3
20260508002505 60 109 0.0 0.0 0.00 0.00 0.00 67 1020.5
20260508002407 60 108 0.0 0.9 0.00 0.00 0.00 66 1013.1
20260508002005 61 32 0.9 1.7 0.00 0.00 0.00 67 1020.9
20260508001903 61 31 0.0 0.0 0.00 0.00 0.00 67 1013.8
20260508001504 61 31 0.0 1.7 0.00 0.00 0.00 67 1021.0
20260508001359 61 31 0.0 0.9 0.00 0.00 0.00 67 1013.6
20260508001005 60 32 0.9 1.7 0.00 0.00 0.00 66 1020.9
20260508000855 60 32 0.0 0.0 0.00 0.00 0.00 66 1013.7
20260508000505 60 33 0.0 1.7 0.00 0.00 0.00 67 1020.9
20260508000352 61 34 0.9 0.9 0.00 0.00 0.00 67 1013.5
20260508000005 61 187 0.0 0.0 0.00 0.00 0.00 66 1021.2
20260507235848 61 187 0.0 0.0 0.00 0.00 0.00 66 1014.0
20260507235504 61 187 0.9 1.7 0.00 0.00 0.00 66 1021.3
20260507235346 61 187 0.0 0.0 0.00 0.00 0.00 66 1013.7
20260507235005 61 187 0.0 1.7 0.00 0.00 0.00 66 1021.3
20260507234843 61 187 0.0 0.9 0.00 0.00 0.00 66 1013.7
20260507234340 61 187 0.9 1.7 0.00 0.00 0.00 65 1013.6
20260507233836 61 127 0.0 0.0 0.00 0.00 0.00 66 1014.0
20260507233507 61 127 0.0 0.0 0.00 0.00 0.00 66 1021.3
20260507233334 61 127 0.0 0.0 0.00 0.00 0.00 66 1014.1
20260507233004 60 127 0.0 1.7 0.00 0.00 0.00 66 1021.2
20260507232832 60 127 0.0 0.0 0.00 0.00 0.00 66 1014.0
20260507232505 60 127 0.0 1.7 0.00 0.00 0.00 66 1021.2
20260507232328 60 130 0.0 0.9 0.00 0.00 0.00 66 1014.1
20260507232007 61 279 0.9 1.7 0.00 0.00 0.00 67 1021.2
20260507231826 61 356 0.0 0.0 0.00 0.00 0.00 67 1014.1
20260507231504 61 356 0.0 1.7 0.00 0.00 0.00 67 1021.2
20260507231322 61 356 0.0 0.9 0.00 0.00 0.00 66 1013.7
20260507231005 61 356 0.0 1.7 0.00 0.00 0.00 66 1021.1
20260507230818 61 356 0.0 0.0 0.00 0.00 0.00 66 1013.7
20260507230315 61 356 0.0 0.0 0.00 0.00 0.00 66 1013.8
20260507230005 60 356 0.9 1.7 0.00 0.00 0.00 66 1020.9
20260507225810 60 356 0.0 0.0 0.00 0.00 0.00 66 1013.4
20260507225504 60 356 0.9 1.7 0.00 0.00 0.00 67 1020.9
20260507225306 60 356 0.0 0.0 0.00 0.00 0.00 67 1013.6
20260507225005 60 356 0.0 0.0 0.00 0.00 0.00 67 1020.8
20260507224802 60 357 0.0 0.9 0.00 0.00 0.00 66 1013.8
20260507224259 61 294 0.0 0.0 0.00 0.00 0.00 65 1013.7
20260507223755 61 248 0.9 0.9 0.00 0.00 0.00 64 1014.0
20260507223251 61 247 0.0 0.9 0.00 0.00 0.00 63 1014.1
20260507223005 61 247 0.9 1.7 0.00 0.00 0.00 62 1021.3
20260507222749 62 254 0.0 1.7 0.00 0.00 0.00 61 1014.1
20260507222505 62 260 0.0 1.7 0.00 0.00 0.00 61 1021.3
20260507222244 62 259 0.9 1.7 0.00 0.00 0.00 60 1014.2
20260507222005 63 186 0.9 2.6 0.00 0.00 0.00 59 1021.4
20260507221742 63 186 2.6 2.6 0.00 0.00 0.00 58 1013.8
20260507221505 63 236 1.7 2.6 0.00 0.00 0.00 57 1021.3
20260507221238 63 256 0.9 1.7 0.00 0.00 0.00 57 1014.0
20260507220734 63 243 0.9 0.9 0.00 0.00 0.00 58 1014.0
20260507220504 63 213 0.9 1.7 0.00 0.00 0.00 57 1021.0
20260507220233 63 212 0.9 1.7 0.00 0.00 0.00 57 1014.0
20260507220004 63 221 0.0 1.7 0.00 0.00 0.00 56 1021.0
20260507215728 64 133 0.0 0.9 0.00 0.00 0.00 54 1014.0
20260507215227 64 245 0.9 2.6 0.00 0.00 0.00 50 1013.8
20260507215005 64 264 0.9 3.5 0.00 0.00 0.00 50 1021.0
20260507214723 64 266 0.9 1.7 0.00 0.00 0.00 51 1013.8
20260507214505 64 274 0.9 1.7 0.00 0.00 0.00 51 1021.1
20260507214221 63 275 1.7 2.6 0.00 0.00 0.00 50 1014.0
20260507214004 63 11 0.9 1.7 0.00 0.00 0.00 52 1021.1
20260507213716 63 282 0.0 0.9 0.00 0.00 0.00 51 1014.1
20260507213505 63 282 0.9 1.7 0.00 0.00 0.00 52 1021.4
20260507213213 62 319 0.9 1.7 0.00 0.00 0.00 52 1014.4
20260507213005 63 307 0.9 1.7 0.00 0.00 0.00 52 1021.3
20260507212709 63 324 1.7 1.7 0.00 0.00 0.00 51 1014.1
20260507212505 63 278 1.7 2.6 0.00 0.00 0.00 51 1021.2
20260507212206 63 312 0.9 0.9 0.00 0.00 0.00 51 1014.0
20260507212004 63 281 1.7 3.5 0.00 0.00 0.00 51 1021.2
20260507211703 63 309 0.9 2.6 0.00 0.00 0.00 51 1014.2
20260507211504 63 283 1.7 3.5 0.00 0.00 0.00 52 1021.3
20260507211158 63 264 0.0 1.7 0.00 0.00 0.00 52 1013.7
20260507211004 63 260 0.9 1.7 0.00 0.00 0.00 52 1021.1
20260507210656 63 278 0.9 2.6 0.00 0.00 0.00 53 1014.0
20260507210505 62 221 1.7 5.2 0.00 0.00 0.00 52 1021.2
20260507210152 62 271 0.0 1.7 0.00 0.00 0.00 54 1013.8